Retour au catalogue

COSMOS 1024 DEB

LostHEO
NORAD 26975·DEBRIS·🇷🇺 Russia

Lancé Jun 28, 1978 depuis Plesetsk Cosmodrome

Loading…

Prochains Passages (prochaines 24 heures)

TLE

PériméSource: Space-Track

Époque: Sep 14, 2025, 22:35 UTC

1 26975U 78066F   25257.94102217  .00000138  00000-0  00000-0 0  9995
2 26975  65.4674  96.6522 6281946 343.4588   3.0392  2.05701639211974

Suivez COSMOS 1024 DEB en temps réel avec AllMySat

Download on the App Store